Lord Howe Island Observation History
Time Wind Speed Temp Pressure Rel. Hum Rain
30/11:30am NE 15-19 kts 23.2°c 1019.5 hPa 78% 0.2mm
30/11:00am ENE 14-17 kts 23.0°c 1019.8 hPa 78% 0.2mm
30/10:30am NE 16-21 kts 21.7°c 1019.9 hPa 81% 0.2mm
30/10:00am ENE 16-20 kts 21.7°c 1020.0 hPa 82% 0.0mm
30/09:30am ENE 15-19 kts 23.0°c 1020.0 hPa 79% 0.0mm
30/09:00am NE 14-17 kts 22.6°c 1019.8 hPa 74% 4.2mm
30/08:30am ENE 14-17 kts 22.6°c 1019.8 hPa 75% 4.2mm
30/08:00am NE 12-15 kts 22.2°c 1019.6 hPa 72% 4.2mm
30/07:30am ENE 14-17 kts 21.7°c 1019.1 hPa 77% 4.2mm
30/07:00am ENE 13-16 kts 21.3°c 1019.1 hPa 77% 4.2mm
30/06:30am NE 11-14 kts 21.0°c 1019.0 hPa 73% 4.2mm
30/06:00am ENE 12-16 kts 21.2°c 1018.8 hPa 75% 4.2mm
30/05:30am ENE 14-18 kts 21.1°c 1018.5 hPa 76% 4.2mm
30/05:00am ENE 13-18 kts 21.1°c 1018.4 hPa 73% 4.2mm
30/04:30am NE 13-16 kts 21.3°c 1018.6 hPa 73% 4.2mm
30/04:00am ENE 13-15 kts 21.3°c 1018.9 hPa 72% 4.2mm
30/03:30am ENE 12-15 kts 21.1°c 1019.1 hPa 75% 4.2mm
30/03:00am ENE 13-16 kts 21.1°c 1019.4 hPa 74% 4.2mm
30/02:30am ENE 13-16 kts 21.1°c 1019.8 hPa 75% 4.2mm
30/02:00am ENE 12-15 kts 21.1°c 1020.1 hPa 75% 4.2mm
30/01:30am ENE 13-17 kts 21.2°c 1020.3 hPa 76% 4.2mm
30/01:00am NE 13-15 kts 21.2°c 1020.7 hPa 76% 4.2mm
30/12:30am ENE 12-16 kts 21.2°c 1020.8 hPa 77% 4.2mm
30/12:00am ENE 12-14 kts 21.2°c 1020.8 hPa 76% 4.2mm
Time Wind Speed Temp Pressure Rel. Hum Rain
29/11:30pm ENE 12-16 kts 21.3°c 1021.0 hPa 74% 4.2mm
29/11:00pm ENE 12-15 kts 21.3°c 1021.1 hPa 72% 4.2mm
29/10:30pm ENE 13-16 kts 21.3°c 1021.3 hPa 74% 4.2mm
29/10:00pm ENE 11-14 kts 21.3°c 1021.5 hPa 74% 4.2mm
29/09:30pm NE 10-13 kts 21.1°c 1021.7 hPa 78% 4.2mm
29/09:00pm NNE 9-13 kts 21.1°c 1021.6 hPa 77% 4.2mm
29/08:30pm NNE 12-18 kts 20.3°c 1021.4 hPa 83% 4.2mm
29/08:00pm NNE 15-18 kts 20.4°c 1021.2 hPa 85% 4.2mm
29/07:30pm NE 14-17 kts 20.5°c 1021.0 hPa 85% 4.2mm
29/07:00pm ENE 14-18 kts 21.3°c 1020.6 hPa 70% 4.2mm
29/06:30pm E 15-18 kts 20.8°c 1020.6 hPa 77% 4.2mm
29/06:00pm ENE 13-17 kts 21.1°c 1020.6 hPa 77% 4.2mm
29/05:30pm ENE 14-20 kts 21.3°c 1020.3 hPa 77% 4.2mm
29/05:00pm ENE 18-22 kts 20.3°c 1020.3 hPa 81% 4.2mm
29/04:30pm ENE 11-18 kts 21.1°c 1020.3 hPa 80% 4.2mm
29/04:20pm ESE 6-11 kts 20.4°c 1020.4 hPa 85% 4.2mm
29/04:00pm E 10-20 kts 19.8°c 1020.7 hPa 85% 3.4mm
29/03:57pm ESE 14-21 kts 20.1°c 1020.7 hPa 83% 1.6mm
29/03:30pm E 15-19 kts 21.6°c 1020.4 hPa 75% 0.0mm
29/03:00pm E 15-18 kts 23.4°c 1020.5 hPa 68% 0.0mm
29/02:30pm ENE 13-17 kts 23.7°c 1020.5 hPa 62% 0.0mm
29/02:00pm ENE 14-18 kts 23.5°c 1020.7 hPa 65% 0.0mm
29/01:30pm E 15-19 kts 23.4°c 1021.0 hPa 64% 0.0mm
29/01:00pm E 17-21 kts 22.8°c 1021.5 hPa 71% 0.0mm
29/12:30pm E 17-21 kts 23.4°c 1021.8 hPa 74% 0.0mm
29/12:00pm E 19-23 kts 22.4°c 1022.0 hPa 73% 0.0mm
29/11:30am E 17-22 kts 22.5°c 1022.1 hPa 71% 0.0mm
29/11:00am E 17-21 kts 22.6°c 1022.4 hPa 73% 0.0mm
29/10:30am E 18-22 kts 22.0°c 1022.5 hPa 73% 0.0mm
29/10:00am E 18-24 kts 21.9°c 1022.7 hPa 72% 0.0mm
29/09:30am E 16-21 kts 22.1°c 1022.6 hPa 67% 0.0mm
29/09:00am E 16-21 kts 22.1°c 1022.4 hPa 66% 0.0mm
29/08:30am E 17-22 kts 21.9°c 1022.3 hPa 68% 0.0mm
29/08:00am E 17-23 kts 21.6°c 1022.0 hPa 72% 0.0mm
29/07:30am E 18-22 kts 21.5°c 1021.8 hPa 71% 0.0mm
29/07:00am E 17-21 kts 21.4°c 1021.5 hPa 74% 0.0mm
29/06:30am E 16-20 kts 21.4°c 1021.2 hPa 75% 0.0mm
29/06:00am E 15-19 kts 21.4°c 1020.9 hPa 72% 0.0mm
29/05:30am E 16-20 kts 21.4°c 1020.7 hPa 71% 0.0mm
29/05:00am E 16-19 kts 21.5°c 1020.6 hPa 67% 0.0mm
29/04:30am E 15-21 kts 21.4°c 1020.7 hPa 68% 0.0mm
29/04:00am E 15-20 kts 21.3°c 1020.8 hPa 70% 0.0mm
29/03:30am E 14-19 kts 21.3°c 1020.8 hPa 71% 0.0mm
29/03:00am E 15-20 kts 21.3°c 1020.8 hPa 70% 0.0mm
29/02:30am E 16-20 kts 21.1°c 1021.1 hPa 73% 0.0mm
29/02:00am E 15-20 kts 21.2°c 1021.5 hPa 72% 0.0mm
29/01:30am E 17-20 kts 21.3°c 1021.6 hPa 71% 0.0mm
29/01:00am E 15-18 kts 21.3°c 1022.1 hPa 74% 0.0mm
29/12:30am E 15-19 kts 21.1°c 1022.2 hPa 73% 0.0mm
29/12:00am E 15-20 kts 21.1°c 1022.6 hPa 72% 0.0mm
Time Wind Speed Temp Pressure Rel. Hum Rain
28/11:30pm E 12-16 kts 20.9°c 1022.7 hPa 73% 0.0mm
28/11:00pm E 13-18 kts 20.9°c 1023.0 hPa 71% 0.0mm
28/10:30pm E 16-21 kts 20.9°c 1023.0 hPa 72% 0.0mm
28/10:00pm E 15-20 kts 21.0°c 1023.3 hPa 70% 0.0mm
28/09:30pm E 16-20 kts 21.0°c 1023.1 hPa 72% 0.0mm
28/09:00pm E 18-23 kts 21.0°c 1023.0 hPa 72% 0.0mm
28/08:30pm E 17-21 kts 21.0°c 1023.0 hPa 71% 0.0mm
28/08:00pm E 16-20 kts 21.1°c 1023.1 hPa 69% 0.0mm
28/07:30pm E 17-22 kts 21.1°c 1022.9 hPa 69% 0.0mm
28/07:00pm E 16-21 kts 21.0°c 1022.6 hPa 69% 0.0mm
28/06:30pm E 18-22 kts 21.2°c 1022.2 hPa 70% 0.0mm
28/06:00pm E 17-21 kts 21.3°c 1022.0 hPa 68% 0.0mm
28/05:30pm E 18-22 kts 21.6°c 1021.8 hPa 68% 0.0mm
28/05:00pm E 15-20 kts 22.2°c 1021.6 hPa 64% 0.0mm
28/04:30pm E 16-20 kts 22.4°c 1021.8 hPa 57% 0.0mm
28/04:00pm E 17-21 kts 22.5°c 1021.8 hPa 58% 0.0mm
28/03:30pm E 17-22 kts 22.6°c 1021.9 hPa 59% 0.0mm
28/03:00pm E 18-23 kts 22.8°c 1021.9 hPa 60% 0.0mm
28/02:30pm E 16-21 kts 23.0°c 1022.1 hPa 58% 0.0mm
28/02:00pm E 16-20 kts 23.0°c 1022.4 hPa 58% 0.0mm
28/01:30pm E 16-22 kts 23.2°c 1022.8 hPa 58% 0.0mm
28/01:00pm E 17-21 kts 22.8°c 1023.0 hPa 57% 0.0mm
28/12:30pm E 19-26 kts 22.9°c 1023.3 hPa 61% 0.0mm
28/12:00pm E 21-29 kts 22.8°c 1023.6 hPa 63% 0.0mm
28/11:30am E 20-27 kts 22.6°c 1023.7 hPa 61% 0.0mm
28/11:00am E 22-27 kts 21.8°c 1023.7 hPa 64% 0.0mm
28/10:30am E 21-28 kts 22.5°c 1023.7 hPa 65% 0.0mm
28/10:00am E 18-24 kts 22.0°c 1023.9 hPa 65% 0.0mm
28/09:30am E 18-24 kts 22.1°c 1024.0 hPa 60% 0.0mm
28/09:00am E 18-23 kts 22.0°c 1023.9 hPa 58% 1.6mm
28/08:30am E 17-22 kts 21.6°c 1023.6 hPa 52% 1.6mm
28/08:00am E 15-23 kts 21.1°c 1023.4 hPa 59% 1.6mm
28/07:57am E 15-25 kts 21.1°c 1023.4 hPa 61% 1.6mm
28/07:30am E 18-26 kts 20.8°c 1023.2 hPa 65% 1.6mm
28/07:00am E 17-24 kts 20.7°c 1023.0 hPa 67% 1.6mm
28/06:32am E 17-27 kts 20.4°c 1022.8 hPa 73% 1.6mm
28/06:30am E 16-24 kts 20.5°c 1022.8 hPa 73% 1.6mm
28/06:00am E 15-23 kts 20.7°c 1022.4 hPa 64% 1.6mm
28/05:30am E 14-21 kts 20.6°c 1022.4 hPa 65% 1.6mm
28/05:00am E 16-23 kts 20.7°c 1022.3 hPa 65% 1.6mm
28/04:45am E 17-27 kts 20.6°c 1022.2 hPa 66% 1.6mm
28/04:30am E 20-25 kts 20.8°c 1022.0 hPa 68% 1.6mm
28/04:00am E 19-26 kts 20.9°c 1022.1 hPa 69% 1.6mm
28/03:30am E 21-26 kts 20.7°c 1022.1 hPa 72% 1.6mm
28/03:00am E 18-26 kts 20.8°c 1022.2 hPa 72% 1.6mm
28/02:30am E 18-24 kts 20.6°c 1022.3 hPa 69% 1.6mm
28/02:00am E 19-24 kts 20.9°c 1022.4 hPa 67% 1.6mm
28/01:30am E 20-25 kts 21.1°c 1022.6 hPa 70% 1.6mm
28/01:00am E 20-26 kts 21.1°c 1022.6 hPa 71% 1.6mm
28/12:30am E 21-26 kts 21.1°c 1022.8 hPa 74% 1.6mm
28/12:00am E 21-27 kts 21.1°c 1022.8 hPa 76% 1.6mm